Regional Weather Roundup
Issued by NWS

Home | Current Version | Previous Version | Text Only | Print | Product List | Glossary On
Versions: 1 2 3 4 5 6 7 8 9 10 11 12 13 14 15 16 17 18 19 20 21 22 23 24 25 26 27 28 29 30 31 32 33 34 35 36 37 38 39 40 41 42 43 44 45 46 47 48 49 50
000
ASUS45 KREV 011410
RWRNV
NEVADA REGIONAL WEATHER ROUNDUP
NATIONAL WEATHER SERVICE RENO NV
600 AM PST SUN FEB 01 2015

NOTE: "FAIR" INDICATES FEW OR NO CLOUDS BELOW 12,000 FEET WITH NO
SIGNIFICANT WEATHER AND/OR OBSTRUCTIONS TO VISIBILITY.

NVZ001-003-004-011500-
WESTERN NEVADA

CITY           SKY/WX    TMP DP  RH WIND       PRES   REMARKS
RENO           PTCLDY    24  17  74 CALM      30.23F
CARSON CITY    FAIR      21  16  79 CALM      30.24S
SLIDE MTN        N/A     39   7  26 NW8         N/A
FALLON         MOCLDY    22  19  89 NE8       30.25R
LOVELOCK       MOCLDY    18  15  88 W7        30.25R
$$

NVZ002-CAZ072-073-011500-
NORTHERN AND CENTRAL SIERRA

CITY           SKY/WX    TMP DP  RH WIND       PRES   REMARKS
S. LAKE TAHOE  CLEAR     21  13  71 CALM      30.25S
TRUCKEE        CLEAR     18  14  86 CALM      30.25S
SQUAW VLY 8000   N/A     41   1  19 CALM        N/A
BLUE CANYON    CLEAR     51  -7   9 NW6       30.19R
MAMMOTH LAKES  FAIR      14   5  67 CALM      30.28R
BRIDGEPORT     FAIR      17   7  64 CALM      30.26R
$$

NVZ030-031-036-011500-
NORTHERN NEVADA

CITY           SKY/WX    TMP DP  RH WIND       PRES   REMARKS
ELKO           MOCLDY    22  19  89 E5        30.22R
WINNEMUCCA     CLOUDY    22  19  89 CALM      30.23R
WENDOVER       PTCLDY    25  18  74 CALM      30.20S
$$

NVZ035-037-011500-
CENTRAL NEVADA

CITY           SKY/WX    TMP DP  RH WIND       PRES   REMARKS
ELY            PTCLDY    19  16  88 S13       30.22S
EUREKA           N/A     22  16  78 S7        30.23S
$$

NVZ013-014-011500-
SOUTH CENTRAL NEVADA

CITY           SKY/WX    TMP DP  RH WIND       PRES   REMARKS
TONOPAH        PTCLDY    28  15  58 N7        30.24S
$$

NVZ017-020-022-011500-
SOUTHERN NEVADA

CITY           SKY/WX    TMP DP  RH WIND       PRES   REMARKS
LAS VEGAS      CLEAR     45  37  73 SW8       30.12R
N. LAS VEGAS   CLEAR     46  33  60 NW8       30.14R
NELLIS AFB     CLEAR     44  37  74 NW6       30.15R
HENDERSON      CLEAR     40  35  83 S10       30.16R
MERCURY        CLEAR     42  28  57 E8        30.15R
$$


USA.gov is the U.S. government's official web portal to all federal, state and local government web resources and services.